Time,TemperatureF,DewpointF,PressureIn,WindDirection,WindDirectionDegrees,WindSpeedMPH,WindSpeedGustMPH,Humidity,HourlyPrecipIn,Conditions,Clouds,dailyrainin,SoftwareType,DateUTC
2013-07-10 00:01:00,68.3,65.9,30.06,East,97,0.0,2.0,92,0.00,,,0.00,WUHU216DAVISVP2,2013-07-10 04:01:00,
2013-07-10 00:06:00,68.2,65.8,30.07,East,97,0.0,2.0,92,0.00,,,0.00,WUHU216DAVISVP2,2013-07-10 04:06:00,
2013-07-10 00:11:00,68.2,65.8,30.07,East,97,0.0,2.0,92,0.00,,,0.00,WUHU216DAVISVP2,2013-07-10 04:11:00,
2013-07-10 00:16:00,68.2,66.1,30.07,East,97,0.0,1.0,93,0.00,,,0.00,WUHU216DAVISVP2,2013-07-10 04:16:00,
2013-07-10 00:21:00,68.1,66.0,30.07,East,97,0.0,1.0,93,0.00,,,0.00,WUHU216DAVISVP2,2013-07-10 04:21:00,
2013-07-10 00:26:00,68.1,66.0,30.07,East,97,0.0,0.0,93,0.00,,,0.00,WUHU216DAVISVP2,2013-07-10 04:26:00,
2013-07-10 00:31:00,68.1,66.0,30.07,East,97,0.0,0.0,93,0.00,,,0.00,WUHU216DAVISVP2,2013-07-10 04:31:00,
2013-07-10 00:36:00,68.1,66.0,30.07,East,97,1.0,1.0,93,0.00,,,0.00,WUHU216DAVISVP2,2013-07-10 04:36:00,
2013-07-10 00:41:00,68.1,66.0,30.06,East,97,1.3,2.0,93,0.00,,,0.00,WUHU216DAVISVP2,2013-07-10 04:41:00,
2013-07-10 00:46:00,68.0,66.2,30.06,East,97,1.0,2.0,94,0.00,,,0.00,WUHU216DAVISVP2,2013-07-10 04:46:00,
2013-07-10 00:51:00,68.0,66.2,30.05,East,98,1.6,4.0,94,0.00,,,0.00,WUHU216DAVISVP2,2013-07-10 04:51:00,
2013-07-10 00:56:00,67.9,65.8,30.05,East,98,0.0,4.0,93,0.00,,,0.00,WUHU216DAVISVP2,2013-07-10 04:56:00,
2013-07-10 01:01:00,67.8,65.7,30.05,East,98,1.0,4.0,93,0.00,,,0.00,WUHU216DAVISVP2,2013-07-10 05:01:00,
2013-07-10 01:06:00,67.7,65.6,30.05,East,98,1.0,3.0,93,0.00,,,0.00,WUHU216DAVISVP2,2013-07-10 05:06:00,
2013-07-10 01:11:00,67.7,65.6,30.05,East,98,1.0,2.0,93,0.00,,,0.00,WUHU216DAVISVP2,2013-07-10 05:11:00,
2013-07-10 01:16:00,67.6,65.5,30.05,East,98,0.0,2.0,93,0.00,,,0.00,WUHU216DAVISVP2,2013-07-10 05:16:00,
2013-07-10 01:21:00,67.6,65.5,30.05,East,98,0.0,2.0,93,0.00,,,0.00,WUHU216DAVISVP2,2013-07-10 05:21:00,
2013-07-10 01:26:00,67.6,65.5,30.05,East,98,1.0,2.0,93,0.00,,,0.00,WUHU216DAVISVP2,2013-07-10 05:26:00,
2013-07-10 01:31:00,67.5,65.4,30.05,East,98,0.0,2.0,93,0.00,,,0.00,WUHU216DAVISVP2,2013-07-10 05:31:00,
2013-07-10 01:36:00,67.5,65.4,30.05,East,98,0.0,2.0,93,0.00,,,0.00,WUHU216DAVISVP2,2013-07-10 05:36:00,
2013-07-10 01:41:00,67.4,65.3,30.05,East,98,1.0,3.0,93,0.00,,,0.00,WUHU216DAVISVP2,2013-07-10 05:41:00,
2013-07-10 01:46:00,67.3,65.2,30.05,East,98,1.0,3.0,93,0.00,,,0.00,WUHU216DAVISVP2,2013-07-10 05:46:00,
2013-07-10 01:51:00,67.3,65.2,30.05,East,98,1.0,3.0,93,0.00,,,0.00,WUHU216DAVISVP2,2013-07-10 05:51:00,
2013-07-10 01:56:00,67.3,65.2,30.04,East,98,1.0,3.0,93,0.00,,,0.00,WUHU216DAVISVP2,2013-07-10 05:56:00,
2013-07-10 02:01:00,67.2,65.1,30.04,East,98,1.4,3.0,93,0.00,,,0.00,WUHU216DAVISVP2,2013-07-10 06:01:00,
2013-07-10 02:06:00,67.2,65.1,30.04,East,98,1.0,3.0,93,0.00,,,0.00,WUHU216DAVISVP2,2013-07-10 06:06:00,
2013-07-10 02:11:00,67.1,64.7,30.04,East,98,1.0,3.0,92,0.00,,,0.00,WUHU216DAVISVP2,2013-07-10 06:11:00,
2013-07-10 02:16:00,67.0,64.6,30.04,East,98,0.0,3.0,92,0.00,,,0.00,WUHU216DAVISVP2,2013-07-10 06:16:00,
2013-07-10 02:21:00,67.0,64.9,30.04,East,98,1.2,3.0,93,0.00,,,0.00,WUHU216DAVISVP2,2013-07-10 06:21:00,
2013-07-10 02:26:00,67.0,64.9,30.04,East,98,1.0,2.0,93,0.00,,,0.00,WUHU216DAVISVP2,2013-07-10 06:26:00,
2013-07-10 02:31:00,66.9,64.5,30.03,East,98,1.8,4.0,92,0.00,,,0.00,WUHU216DAVISVP2,2013-07-10 06:31:00,
2013-07-10 02:36:00,66.8,64.7,30.03,East,98,2.3,4.0,93,0.00,,,0.00,WUHU216DAVISVP2,2013-07-10 06:36:00,
2013-07-10 02:41:00,66.6,64.5,30.03,East,98,1.3,4.0,93,0.00,,,0.00,WUHU216DAVISVP2,2013-07-10 06:41:00,
2013-07-10 02:46:00,66.4,64.3,30.02,East,98,1.7,4.0,93,0.00,,,0.00,WUHU216DAVISVP2,2013-07-10 06:46:00,
2013-07-10 02:51:00,66.3,64.5,30.02,East,98,1.9,4.0,94,0.00,,,0.00,WUHU216DAVISVP2,2013-07-10 06:51:00,
2013-07-10 02:56:00,66.2,64.4,30.02,East,98,0.0,4.0,94,0.00,,,0.00,WUHU216DAVISVP2,2013-07-10 06:56:00,
2013-07-10 03:01:00,66.1,64.3,30.02,East,98,0.0,4.0,94,0.00,,,0.00,WUHU216DAVISVP2,2013-07-10 07:01:00,
2013-07-10 03:06:00,66.0,64.5,30.02,East,98,0.0,3.0,95,0.00,,,0.00,WUHU216DAVISVP2,2013-07-10 07:06:00,
2013-07-10 03:11:00,65.9,64.4,30.02,East,98,0.0,0.0,95,0.00,,,0.00,WUHU216DAVISVP2,2013-07-10 07:11:00,
2013-07-10 03:16:00,65.8,64.3,30.02,East,98,2.5,3.0,95,0.00,,,0.00,WUHU216DAVISVP2,2013-07-10 07:16:00,
2013-07-10 03:21:00,65.8,64.3,30.01,East,98,1.3,4.0,95,0.00,,,0.00,WUHU216DAVISVP2,2013-07-10 07:21:00,
2013-07-10 03:26:00,65.8,64.3,30.01,East,98,1.8,4.0,95,0.00,,,0.00,WUHU216DAVISVP2,2013-07-10 07:26:00,
2013-07-10 03:31:00,65.7,64.5,30.01,East,98,1.0,4.0,96,0.00,,,0.00,WUHU216DAVISVP2,2013-07-10 07:31:00,
2013-07-10 03:36:00,65.7,64.5,30.01,East,98,1.3,4.0,96,0.00,,,0.00,WUHU216DAVISVP2,2013-07-10 07:36:00,
2013-07-10 03:41:00,65.7,64.5,30.01,East,98,0.0,4.0,96,0.00,,,0.00,WUHU216DAVISVP2,2013-07-10 07:41:00,
2013-07-10 03:46:00,65.6,64.4,30.01,East,98,2.0,4.0,96,0.00,,,0.00,WUHU216DAVISVP2,2013-07-10 07:46:00,
2013-07-10 03:51:00,65.6,64.4,30.01,East,98,1.5,4.0,96,0.00,,,0.00,WUHU216DAVISVP2,2013-07-10 07:51:00,
2013-07-10 03:56:00,65.6,64.4,30.01,East,98,1.3,3.0,96,0.00,,,0.00,WUHU216DAVISVP2,2013-07-10 07:56:00,
2013-07-10 04:01:00,65.6,64.4,30.01,East,98,0.0,3.0,96,0.00,,,0.00,WUHU216DAVISVP2,2013-07-10 08:01:00,
2013-07-10 04:06:00,65.7,64.5,30.01,East,98,0.0,3.0,96,0.00,,,0.00,WUHU216DAVISVP2,2013-07-10 08:06:00,
2013-07-10 04:11:00,65.7,64.5,30.02,East,98,0.0,2.0,96,0.00,,,0.00,WUHU216DAVISVP2,2013-07-10 08:11:00,
2013-07-10 04:16:00,65.7,64.5,30.02,East,98,0.0,0.0,96,0.00,,,0.00,WUHU216DAVISVP2,2013-07-10 08:16:00,
2013-07-10 04:21:00,65.7,64.5,30.01,East,98,2.0,2.0,96,0.00,,,0.00,WUHU216DAVISVP2,2013-07-10 08:21:00,
2013-07-10 04:26:00,65.7,64.5,30.01,East,98,1.5,3.0,96,0.00,,,0.00,WUHU216DAVISVP2,2013-07-10 08:26:00,
2013-07-10 04:31:00,65.7,64.5,30.01,East,98,1.8,3.0,96,0.00,,,0.00,WUHU216DAVISVP2,2013-07-10 08:31:00,
2013-07-10 04:36:00,65.7,64.5,30.01,East,98,0.0,3.0,96,0.00,,,0.00,WUHU216DAVISVP2,2013-07-10 08:36:00,
2013-07-10 04:41:00,65.6,64.4,30.01,East,98,1.6,3.0,96,0.00,,,0.00,WUHU216DAVISVP2,2013-07-10 08:41:00,
2013-07-10 04:46:00,65.7,64.5,30.01,East,98,2.4,4.0,96,0.00,,,0.00,WUHU216DAVISVP2,2013-07-10 08:46:00,
2013-07-10 04:51:00,65.6,64.4,30.01,East,98,1.3,4.0,96,0.00,,,0.00,WUHU216DAVISVP2,2013-07-10 08:51:00,
2013-07-10 04:56:00,65.6,64.4,30.01,East,98,0.0,4.0,96,0.00,,,0.00,WUHU216DAVISVP2,2013-07-10 08:56:00,
2013-07-10 05:01:00,65.6,64.4,30.01,East,98,0.0,4.0,96,0.00,,,0.00,WUHU216DAVISVP2,2013-07-10 09:01:00,
2013-07-10 05:06:00,65.7,64.5,30.00,East,98,3.0,3.0,96,0.00,,,0.00,WUHU216DAVISVP2,2013-07-10 09:06:00,
2013-07-10 05:11:00,65.6,64.4,30.00,East,98,0.0,3.0,96,0.00,,,0.00,WUHU216DAVISVP2,2013-07-10 09:11:00,
2013-07-10 05:16:00,65.6,64.4,30.00,East,98,2.0,3.0,96,0.00,,,0.00,WUHU216DAVISVP2,2013-07-10 09:16:00,
2013-07-10 05:21:00,65.6,64.4,30.01,East,98,1.0,3.0,96,0.00,,,0.00,WUHU216DAVISVP2,2013-07-10 09:21:00,
2013-07-10 05:26:00,65.5,64.3,30.00,East,98,0.0,3.0,96,0.00,,,0.00,WUHU216DAVISVP2,2013-07-10 09:26:00,
2013-07-10 05:31:00,65.6,64.4,30.01,East,98,0.0,3.0,96,0.00,,,0.00,WUHU216DAVISVP2,2013-07-10 09:31:00,
2013-07-10 05:36:00,65.6,64.4,30.00,East,98,0.0,3.0,96,0.00,,,0.00,WUHU216DAVISVP2,2013-07-10 09:36:00,
2013-07-10 05:41:00,65.6,64.4,30.00,East,98,0.0,0.0,96,0.00,,,0.00,WUHU216DAVISVP2,2013-07-10 09:41:00,
2013-07-10 05:46:00,65.6,64.4,30.01,East,98,0.0,0.0,96,0.00,,,0.00,WUHU216DAVISVP2,2013-07-10 09:46:00,
2013-07-10 05:51:00,65.5,64.3,30.01,East,98,0.0,0.0,96,0.00,,,0.00,WUHU216DAVISVP2,2013-07-10 09:51:00,
2013-07-10 05:56:00,65.5,64.3,30.01,East,98,0.0,0.0,96,0.00,,,0.00,WUHU216DAVISVP2,2013-07-10 09:56:00,
2013-07-10 06:01:00,65.6,64.4,30.01,East,98,1.5,2.0,96,0.00,,,0.00,WUHU216DAVISVP2,2013-07-10 10:01:00,
2013-07-10 06:06:00,65.6,64.4,30.00,East,98,0.0,3.0,96,0.00,,,0.00,WUHU216DAVISVP2,2013-07-10 10:06:00,
2013-07-10 06:11:00,65.5,64.3,30.00,East,98,0.0,4.0,96,0.00,,,0.00,WUHU216DAVISVP2,2013-07-10 10:11:00,
2013-07-10 06:16:00,65.5,64.6,30.00,East,98,0.0,4.0,97,0.00,,,0.00,WUHU216DAVISVP2,2013-07-10 10:16:00,
2013-07-10 06:21:00,65.5,64.6,30.00,East,98,0.0,4.0,97,0.00,,,0.00,WUHU216DAVISVP2,2013-07-10 10:21:00,
2013-07-10 06:26:00,65.5,64.6,30.00,East,98,1.3,4.0,97,0.00,,,0.00,WUHU216DAVISVP2,2013-07-10 10:26:00,
2013-07-10 06:31:00,65.5,64.6,30.00,East,98,2.5,3.0,97,0.00,,,0.00,WUHU216DAVISVP2,2013-07-10 10:31:00,
2013-07-10 06:36:00,65.4,64.5,30.00,East,98,0.0,3.0,97,0.00,,,0.00,WUHU216DAVISVP2,2013-07-10 10:36:00,
2013-07-10 06:41:00,65.4,64.5,30.00,East,98,1.3,3.0,97,0.00,,,0.00,WUHU216DAVISVP2,2013-07-10 10:41:00,
2013-07-10 06:46:00,65.4,64.5,30.00,East,98,0.0,3.0,97,0.00,,,0.00,WUHU216DAVISVP2,2013-07-10 10:46:00,
2013-07-10 06:51:00,65.4,64.5,30.00,East,98,1.2,3.0,97,0.00,,,0.00,WUHU216DAVISVP2,2013-07-10 10:51:00,
2013-07-10 06:56:00,65.4,64.5,30.00,East,98,1.2,3.0,97,0.00,,,0.00,WUHU216DAVISVP2,2013-07-10 10:56:00,
2013-07-10 07:01:00,65.4,64.5,30.00,East,98,0.0,3.0,97,0.00,,,0.00,WUHU216DAVISVP2,2013-07-10 11:01:00,
2013-07-10 07:06:00,65.4,64.5,30.00,East,98,0.0,2.0,97,0.00,,,0.00,WUHU216DAVISVP2,2013-07-10 11:06:00,
2013-07-10 07:11:00,65.5,64.6,30.00,East,98,0.0,2.0,97,0.00,,,0.00,WUHU216DAVISVP2,2013-07-10 11:11:00,
2013-07-10 07:16:00,65.5,64.6,30.00,East,98,0.0,2.0,97,0.00,,,0.00,WUHU216DAVISVP2,2013-07-10 11:16:00,
2013-07-10 07:21:00,65.6,64.7,30.00,East,98,0.0,2.0,97,0.01,,,0.01,WUHU216DAVISVP2,2013-07-10 11:21:00,
2013-07-10 07:26:00,65.6,64.7,30.00,East,98,0.0,2.0,97,0.01,,,0.01,WUHU216DAVISVP2,2013-07-10 11:26:00,
2013-07-10 07:31:00,65.7,64.8,30.00,East,98,1.0,1.0,97,0.01,,,0.01,WUHU216DAVISVP2,2013-07-10 11:31:00,
2013-07-10 07:36:00,65.7,64.8,30.00,East,98,0.0,1.0,97,0.01,,,0.01,WUHU216DAVISVP2,2013-07-10 11:36:00,
2013-07-10 07:41:00,65.7,64.8,30.00,East,98,1.0,2.0,97,0.01,,,0.01,WUHU216DAVISVP2,2013-07-10 11:41:00,
2013-07-10 07:46:00,65.8,64.9,29.99,East,98,1.0,2.0,97,0.01,,,0.01,WUHU216DAVISVP2,2013-07-10 11:46:00,
2013-07-10 07:51:00,65.8,64.9,29.99,East,98,0.0,3.0,97,0.01,,,0.01,WUHU216DAVISVP2,2013-07-10 11:51:00,
2013-07-10 07:56:00,65.8,65.2,30.00,East,98,2.1,3.0,98,0.01,,,0.01,WUHU216DAVISVP2,2013-07-10 11:56:00,
2013-07-10 08:01:00,65.9,65.3,30.00,East,98,0.0,4.0,98,0.01,,,0.01,WUHU216DAVISVP2,2013-07-10 12:01:00,
2013-07-10 08:06:00,65.9,65.3,29.99,East,98,3.0,6.0,98,0.01,,,0.01,WUHU216DAVISVP2,2013-07-10 12:06:00,
2013-07-10 08:11:00,65.9,65.3,29.99,East,98,1.6,6.0,98,0.01,,,0.01,WUHU216DAVISVP2,2013-07-10 12:11:00,
2013-07-10 08:16:00,66.0,65.4,29.99,East,98,1.0,6.0,98,0.01,,,0.01,WUHU216DAVISVP2,2013-07-10 12:16:00,
2013-07-10 08:21:00,66.2,65.6,29.99,East,98,0.0,6.0,98,0.00,,,0.01,WUHU216DAVISVP2,2013-07-10 12:21:00,
2013-07-10 08:26:00,66.2,65.6,29.99,East,98,1.0,4.0,98,0.00,,,0.01,WUHU216DAVISVP2,2013-07-10 12:26:00,
2013-07-10 08:31:00,66.3,65.7,29.99,East,98,3.0,4.0,98,0.00,,,0.01,WUHU216DAVISVP2,2013-07-10 12:31:00,
2013-07-10 08:36:00,66.4,65.8,29.98,East,98,3.0,4.0,98,0.00,,,0.01,WUHU216DAVISVP2,2013-07-10 12:36:00,
2013-07-10 08:41:00,66.6,66.0,29.98,East,99,2.3,6.0,98,0.00,,,0.01,WUHU216DAVISVP2,2013-07-10 12:41:00,
2013-07-10 08:46:00,66.7,66.1,29.98,ESE,103,3.0,6.0,98,0.00,,,0.01,WUHU216DAVISVP2,2013-07-10 12:46:00,
2013-07-10 08:51:00,66.8,66.2,29.98,ESE,104,3.0,6.0,98,0.00,,,0.01,WUHU216DAVISVP2,2013-07-10 12:51:00,
2013-07-10 08:56:00,66.8,66.2,29.98,ESE,104,1.3,6.0,98,0.00,,,0.01,WUHU216DAVISVP2,2013-07-10 12:56:00,
2013-07-10 09:01:00,66.9,66.3,29.98,ESE,104,1.9,6.0,98,0.00,,,0.01,WUHU216DAVISVP2,2013-07-10 13:01:00,
2013-07-10 09:06:00,67.0,66.4,29.98,ESE,105,1.0,6.0,98,0.00,,,0.01,WUHU216DAVISVP2,2013-07-10 13:06:00,
2013-07-10 09:11:00,67.0,66.4,29.98,ESE,105,3.0,6.0,98,0.00,,,0.01,WUHU216DAVISVP2,2013-07-10 13:11:00,
2013-07-10 09:16:00,67.0,66.4,29.97,ESE,105,2.2,6.0,98,0.00,,,0.01,WUHU216DAVISVP2,2013-07-10 13:16:00,
2013-07-10 09:21:00,67.1,66.5,29.97,ESE,105,1.7,6.0,98,0.00,,,0.01,WUHU216DAVISVP2,2013-07-10 13:21:00,
2013-07-10 09:26:00,67.2,66.6,29.97,ESE,105,2.0,6.0,98,0.00,,,0.01,WUHU216DAVISVP2,2013-07-10 13:26:00,
2013-07-10 09:31:00,67.3,66.7,29.97,ESE,104,2.0,6.0,98,0.00,,,0.01,WUHU216DAVISVP2,2013-07-10 13:31:00,
2013-07-10 09:36:00,67.2,66.6,29.97,ESE,105,2.6,4.0,98,0.00,,,0.01,WUHU216DAVISVP2,2013-07-10 13:36:00,
2013-07-10 09:41:00,67.4,66.8,29.97,ESE,105,0.0,4.0,98,0.00,,,0.01,WUHU216DAVISVP2,2013-07-10 13:41:00,
2013-07-10 09:46:00,67.5,66.9,29.97,ESE,105,1.5,4.0,98,0.00,,,0.01,WUHU216DAVISVP2,2013-07-10 13:46:00,
2013-07-10 09:51:00,67.7,67.1,29.96,ESE,105,0.0,4.0,98,0.00,,,0.01,WUHU216DAVISVP2,2013-07-10 13:51:00,
2013-07-10 09:56:00,67.7,67.1,29.96,ESE,105,1.3,4.0,98,0.00,,,0.01,WUHU216DAVISVP2,2013-07-10 13:56:00,
2013-07-10 10:01:00,67.8,67.2,29.96,ESE,105,1.6,4.0,98,0.00,,,0.01,WUHU216DAVISVP2,2013-07-10 14:01:00,
2013-07-10 10:06:00,67.9,67.3,29.96,ESE,105,2.2,4.0,98,0.00,,,0.01,WUHU216DAVISVP2,2013-07-10 14:06:00,
2013-07-10 10:11:00,67.9,67.3,29.96,ESE,105,0.0,4.0,98,0.00,,,0.01,WUHU216DAVISVP2,2013-07-10 14:11:00,
2013-07-10 10:16:00,67.9,67.3,29.96,ESE,105,1.8,4.0,98,0.00,,,0.01,WUHU216DAVISVP2,2013-07-10 14:16:00,
2013-07-10 10:21:00,68.0,67.4,29.96,SE,138,3.0,9.0,98,0.00,,,0.01,WUHU216DAVISVP2,2013-07-10 14:21:00,
2013-07-10 10:26:00,68.1,67.5,29.96,ESE,114,2.2,9.0,98,0.00,,,0.01,WUHU216DAVISVP2,2013-07-10 14:26:00,
2013-07-10 10:31:00,68.3,67.7,29.96,ESE,117,1.0,9.0,98,0.00,,,0.01,WUHU216DAVISVP2,2013-07-10 14:31:00,
2013-07-10 10:36:00,68.3,67.7,29.96,ESE,112,3.3,6.0,98,0.00,,,0.01,WUHU216DAVISVP2,2013-07-10 14:36:00,
2013-07-10 10:41:00,68.4,67.8,29.96,ESE,109,4.0,6.0,98,0.00,,,0.01,WUHU216DAVISVP2,2013-07-10 14:41:00,
2013-07-10 10:46:00,68.5,67.9,29.96,ESE,109,2.4,6.0,98,0.00,,,0.01,WUHU216DAVISVP2,2013-07-10 14:46:00,
2013-07-10 10:51:00,68.6,68.0,29.96,ESE,109,2.0,6.0,98,0.00,,,0.01,WUHU216DAVISVP2,2013-07-10 14:51:00,
2013-07-10 10:56:00,68.8,68.2,29.95,ESE,109,2.0,4.0,98,0.00,,,0.01,WUHU216DAVISVP2,2013-07-10 14:56:00,
2013-07-10 11:01:00,69.0,68.4,29.95,ESE,103,0.0,4.0,98,0.00,,,0.01,WUHU216DAVISVP2,2013-07-10 15:01:00,
2013-07-10 11:06:00,69.2,68.6,29.95,ESE,104,1.0,4.0,98,0.00,,,0.01,WUHU216DAVISVP2,2013-07-10 15:06:00,
2013-07-10 11:11:00,69.4,68.8,29.95,ESE,104,0.0,4.0,98,0.00,,,0.01,WUHU216DAVISVP2,2013-07-10 15:11:00,
2013-07-10 11:16:00,69.6,68.7,29.95,ESE,104,1.3,4.0,97,0.00,,,0.01,WUHU216DAVISVP2,2013-07-10 15:16:00,
2013-07-10 11:21:00,69.8,68.9,29.94,ESE,104,0.0,3.0,97,0.00,,,0.01,WUHU216DAVISVP2,2013-07-10 15:21:00,
2013-07-10 11:26:00,70.0,69.1,29.94,ESE,104,0.0,3.0,97,0.00,,,0.01,WUHU216DAVISVP2,2013-07-10 15:26:00,
2013-07-10 11:31:00,70.2,69.3,29.94,ESE,104,1.0,2.0,97,0.00,,,0.01,WUHU216DAVISVP2,2013-07-10 15:31:00,
2013-07-10 11:36:00,70.4,69.5,29.94,ESE,108,1.0,3.0,97,0.00,,,0.01,WUHU216DAVISVP2,2013-07-10 15:36:00,
2013-07-10 11:41:00,70.8,69.9,29.94,SE,126,0.0,4.0,97,0.00,,,0.01,WUHU216DAVISVP2,2013-07-10 15:41:00,
2013-07-10 11:46:00,70.9,69.7,29.94,SE,140,1.0,4.0,96,0.00,,,0.01,WUHU216DAVISVP2,2013-07-10 15:46:00,
2013-07-10 11:51:00,70.9,69.7,29.94,SE,140,1.0,4.0,96,0.00,,,0.01,WUHU216DAVISVP2,2013-07-10 15:51:00,
2013-07-10 11:56:00,71.1,69.9,29.94,SE,140,1.3,4.0,96,0.00,,,0.01,WUHU216DAVISVP2,2013-07-10 15:56:00,
2013-07-10 12:01:00,71.3,70.1,29.93,SE,140,2.0,4.0,96,0.00,,,0.01,WUHU216DAVISVP2,2013-07-10 16:01:00,
2013-07-10 12:06:00,71.4,69.9,29.94,SE,140,1.5,3.0,95,0.00,,,0.01,WUHU216DAVISVP2,2013-07-10 16:06:00,
2013-07-10 12:11:00,71.6,70.1,29.93,SE,140,1.5,4.0,95,0.00,,,0.01,WUHU216DAVISVP2,2013-07-10 16:11:00,
2013-07-10 12:16:00,71.7,70.2,29.93,SE,141,1.1,4.0,95,0.00,,,0.01,WUHU216DAVISVP2,2013-07-10 16:16:00,
2013-07-10 12:21:00,72.0,70.5,29.93,SE,141,1.0,4.0,95,0.00,,,0.01,WUHU216DAVISVP2,2013-07-10 16:21:00,
2013-07-10 12:27:00,72.4,70.9,29.92,SE,141,3.0,5.0,95,0.00,,,0.01,WUHU216DAVISVP2,2013-07-10 16:27:00,
2013-07-10 12:32:00,72.6,70.7,29.92,ESE,113,7.0,7.0,94,0.00,,,0.01,WUHU216DAVISVP2,2013-07-10 16:32:00,
2013-07-10 12:37:00,72.9,71.0,29.92,ESE,113,3.0,7.0,94,0.00,,,0.01,WUHU216DAVISVP2,2013-07-10 16:37:00,
2013-07-10 12:42:00,73.3,71.5,29.92,ESE,104,1.9,7.0,94,0.00,,,0.01,WUHU216DAVISVP2,2013-07-10 16:42:00,
2013-07-10 12:47:00,73.8,71.6,29.91,ESE,108,2.8,7.0,93,0.00,,,0.01,WUHU216DAVISVP2,2013-07-10 16:47:00,
2013-07-10 12:52:00,74.1,71.6,29.91,ESE,104,3.0,6.0,92,0.00,,,0.01,WUHU216DAVISVP2,2013-07-10 16:52:00,
2013-07-10 12:57:00,74.6,71.8,29.91,ESE,108,3.0,6.0,91,0.00,,,0.01,WUHU216DAVISVP2,2013-07-10 16:57:00,
2013-07-10 13:02:00,75.1,72.3,29.91,ESE,108,1.3,6.0,91,0.00,,,0.01,WUHU216DAVISVP2,2013-07-10 17:02:00,
2013-07-10 13:07:00,75.9,73.1,29.90,ESE,109,1.8,6.0,91,0.00,,,0.01,WUHU216DAVISVP2,2013-07-10 17:07:00,
2013-07-10 13:12:00,76.8,73.6,29.89,SE,134,1.8,5.0,90,0.00,,,0.01,WUHU216DAVISVP2,2013-07-10 17:12:00,
2013-07-10 13:17:00,77.6,73.4,29.89,SE,132,1.9,5.0,87,0.00,,,0.01,WUHU216DAVISVP2,2013-07-10 17:17:00,
2013-07-10 13:22:00,78.1,73.9,29.89,ESE,105,3.0,6.0,87,0.00,,,0.01,WUHU216DAVISVP2,2013-07-10 17:22:00,
2013-07-10 13:27:00,78.6,74.4,29.88,ESE,106,1.0,6.0,87,0.00,,,0.01,WUHU216DAVISVP2,2013-07-10 17:27:00,
2013-07-10 13:32:00,79.3,74.4,29.88,SSE,151,2.3,6.0,85,0.00,,,0.01,WUHU216DAVISVP2,2013-07-10 17:32:00,
2013-07-10 13:37:00,79.7,75.5,29.87,SSE,153,1.0,6.0,87,0.00,,,0.01,WUHU216DAVISVP2,2013-07-10 17:37:00,
2013-07-10 13:42:00,79.9,74.3,29.87,SE,134,3.0,6.0,83,0.00,,,0.01,WUHU216DAVISVP2,2013-07-10 17:42:00,
2013-07-10 13:47:00,80.0,74.8,29.86,East,87,3.0,7.0,84,0.00,,,0.01,WUHU216DAVISVP2,2013-07-10 17:47:00,
2013-07-10 13:52:00,80.1,74.9,29.86,East,101,1.6,7.0,84,0.00,,,0.01,WUHU216DAVISVP2,2013-07-10 17:52:00,
2013-07-10 13:57:00,80.1,74.9,29.86,ESE,106,1.3,7.0,84,0.00,,,0.01,WUHU216DAVISVP2,2013-07-10 17:57:00,
2013-07-10 14:02:00,80.4,74.8,29.86,East,95,3.1,7.0,83,0.00,,,0.01,WUHU216DAVISVP2,2013-07-10 18:02:00,
2013-07-10 14:07:00,80.5,74.9,29.85,ESE,107,3.4,7.0,83,0.00,,,0.01,WUHU216DAVISVP2,2013-07-10 18:07:00,
2013-07-10 14:12:00,80.7,75.1,29.85,East,99,2.0,7.0,83,0.00,,,0.01,WUHU216DAVISVP2,2013-07-10 18:12:00,
2013-07-10 14:17:00,80.9,75.2,29.85,East,100,2.1,7.0,83,0.00,,,0.01,WUHU216DAVISVP2,2013-07-10 18:17:00,
2013-07-10 14:22:00,81.0,75.4,29.85,ESE,112,3.0,7.0,83,0.00,,,0.01,WUHU216DAVISVP2,2013-07-10 18:22:00,
2013-07-10 14:27:00,81.2,75.6,29.84,ESE,112,2.4,6.0,83,0.00,,,0.01,WUHU216DAVISVP2,2013-07-10 18:27:00,
2013-07-10 14:32:00,81.5,75.9,29.84,ESE,111,1.2,6.0,83,0.00,,,0.01,WUHU216DAVISVP2,2013-07-10 18:32:00,
2013-07-10 14:37:00,81.9,76.0,29.84,ESE,106,3.4,6.0,82,0.00,,,0.01,WUHU216DAVISVP2,2013-07-10 18:37:00,
2013-07-10 14:42:00,82.0,75.7,29.84,ESE,119,1.6,6.0,81,0.00,,,0.01,WUHU216DAVISVP2,2013-07-10 18:42:00,
2013-07-10 14:47:00,82.0,76.1,29.83,ESE,109,4.0,7.0,82,0.00,,,0.01,WUHU216DAVISVP2,2013-07-10 18:47:00,
2013-07-10 14:52:00,81.8,76.2,29.83,ESE,103,2.7,7.0,83,0.00,,,0.01,WUHU216DAVISVP2,2013-07-10 18:52:00,
2013-07-10 14:57:00,81.4,75.8,29.84,ESE,112,1.9,7.0,83,0.02,,,0.03,WUHU216DAVISVP2,2013-07-10 18:57:00,
2013-07-10 15:02:00,80.6,76.1,29.83,SSE,159,2.8,8.0,86,0.09,,,0.10,WUHU216DAVISVP2,2013-07-10 19:02:00,
2013-07-10 15:07:00,79.4,75.9,29.84,WSW,240,5.0,8.0,89,0.16,,,0.17,WUHU216DAVISVP2,2013-07-10 19:07:00,
2013-07-10 15:12:00,77.8,75.3,29.82,West,276,1.0,9.0,92,0.45,,,0.46,WUHU216DAVISVP2,2013-07-10 19:12:00,
2013-07-10 15:17:00,77.0,74.5,29.82,WNW,284,2.0,9.0,92,0.47,,,0.48,WUHU216DAVISVP2,2013-07-10 19:17:00,
2013-07-10 15:22:00,76.7,74.8,29.82,WNW,282,2.0,9.0,94,0.47,,,0.48,WUHU216DAVISVP2,2013-07-10 19:22:00,
2013-07-10 15:27:00,77.1,75.9,29.81,ESE,105,3.2,7.0,96,0.47,,,0.48,WUHU216DAVISVP2,2013-07-10 19:27:00,
2013-07-10 15:32:00,77.3,76.1,29.81,ESE,117,1.0,7.0,96,0.47,,,0.48,WUHU216DAVISVP2,2013-07-10 19:32:00,
2013-07-10 15:37:00,77.3,75.7,29.82,ESE,113,0.0,7.0,95,0.47,,,0.48,WUHU216DAVISVP2,2013-07-10 19:37:00,
2013-07-10 15:42:00,77.3,76.0,29.81,ESE,114,2.0,7.0,96,0.47,,,0.48,WUHU216DAVISVP2,2013-07-10 19:42:00,
2013-07-10 15:47:00,77.4,76.1,29.81,ESE,114,1.0,7.0,96,0.47,,,0.48,WUHU216DAVISVP2,2013-07-10 19:47:00,
2013-07-10 15:52:00,77.4,76.1,29.80,ESE,114,0.0,3.0,96,0.47,,,0.48,WUHU216DAVISVP2,2013-07-10 19:52:00,
2013-07-10 15:57:00,77.3,76.0,29.81,ESE,114,0.0,3.0,96,0.44,,,0.48,WUHU216DAVISVP2,2013-07-10 19:57:00,
2013-07-10 16:02:00,77.3,76.0,29.81,ESE,114,1.3,2.0,96,0.37,,,0.48,WUHU216DAVISVP2,2013-07-10 20:02:00,
2013-07-10 16:07:00,77.3,76.4,29.81,ESE,115,0.0,2.0,97,0.30,,,0.48,WUHU216DAVISVP2,2013-07-10 20:07:00,
2013-07-10 16:12:00,77.6,76.7,29.80,ESE,115,0.0,2.0,97,0.01,,,0.49,WUHU216DAVISVP2,2013-07-10 20:12:00,
2013-07-10 16:17:00,78.1,77.5,29.81,ESE,115,0.0,2.0,98,0.01,,,0.49,WUHU216DAVISVP2,2013-07-10 20:17:00,
2013-07-10 16:22:00,78.0,77.1,29.80,ESE,115,0.0,1.0,97,0.01,,,0.49,WUHU216DAVISVP2,2013-07-10 20:22:00,
2013-07-10 16:27:00,78.0,77.1,29.80,ESE,115,0.0,1.0,97,0.01,,,0.49,WUHU216DAVISVP2,2013-07-10 20:27:00,
2013-07-10 16:32:00,78.2,77.3,29.80,ESE,115,0.0,1.0,97,0.01,,,0.49,WUHU216DAVISVP2,2013-07-10 20:32:00,
2013-07-10 16:37:00,78.4,77.5,29.79,ESE,115,0.0,1.0,97,0.01,,,0.49,WUHU216DAVISVP2,2013-07-10 20:37:00,
2013-07-10 16:42:00,78.6,77.7,29.79,ESE,115,0.0,0.0,97,0.01,,,0.49,WUHU216DAVISVP2,2013-07-10 20:42:00,
2013-07-10 16:47:00,78.7,77.8,29.79,ESE,115,0.0,0.0,97,0.01,,,0.49,WUHU216DAVISVP2,2013-07-10 20:47:00,
2013-07-10 16:52:00,78.9,78.0,29.79,ESE,115,0.0,0.0,97,0.01,,,0.49,WUHU216DAVISVP2,2013-07-10 20:52:00,
2013-07-10 16:57:00,79.0,78.1,29.79,ESE,115,0.0,0.0,97,0.01,,,0.49,WUHU216DAVISVP2,2013-07-10 20:57:00,
2013-07-10 17:02:00,78.8,77.9,29.79,ESE,115,0.0,0.0,97,0.01,,,0.49,WUHU216DAVISVP2,2013-07-10 21:02:00,
2013-07-10 17:07:00,78.6,77.7,29.79,ESE,115,0.0,0.0,97,0.01,,,0.49,WUHU216DAVISVP2,2013-07-10 21:07:00,
2013-07-10 17:12:00,78.6,77.7,29.79,ESE,115,0.0,1.0,97,0.00,,,0.49,WUHU216DAVISVP2,2013-07-10 21:12:00,
2013-07-10 17:17:00,78.5,77.6,29.78,ESE,119,0.0,1.0,97,0.00,,,0.49,WUHU216DAVISVP2,2013-07-10 21:17:00,
2013-07-10 17:22:00,78.5,77.6,29.78,ESE,119,0.0,1.0,97,0.00,,,0.49,WUHU216DAVISVP2,2013-07-10 21:22:00,
2013-07-10 17:27:00,78.2,76.9,29.78,ESE,119,0.0,1.0,96,0.00,,,0.49,WUHU216DAVISVP2,2013-07-10 21:27:00,
2013-07-10 17:32:00,78.2,76.9,29.78,ESE,119,1.2,2.0,96,0.00,,,0.49,WUHU216DAVISVP2,2013-07-10 21:32:00,
2013-07-10 17:37:00,78.1,76.8,29.78,ESE,119,0.0,2.0,96,0.00,,,0.49,WUHU216DAVISVP2,2013-07-10 21:37:00,
2013-07-10 17:42:00,78.0,76.7,29.78,ESE,119,0.0,2.0,96,0.00,,,0.49,WUHU216DAVISVP2,2013-07-10 21:42:00,
2013-07-10 17:47:00,77.9,76.6,29.78,ESE,119,0.0,2.0,96,0.00,,,0.49,WUHU216DAVISVP2,2013-07-10 21:47:00,
2013-07-10 17:52:00,77.8,76.9,29.78,ESE,119,1.0,2.0,97,0.00,,,0.49,WUHU216DAVISVP2,2013-07-10 21:52:00,
2013-07-10 17:57:00,77.3,75.7,29.78,SE,134,4.1,10.0,95,0.00,,,0.49,WUHU216DAVISVP2,2013-07-10 21:57:00,
2013-07-10 18:02:00,76.3,74.4,29.78,SE,136,3.0,10.0,94,0.01,,,0.50,WUHU216DAVISVP2,2013-07-10 22:02:00,
2013-07-10 18:07:00,75.9,74.0,29.78,SE,131,3.6,10.0,94,0.02,,,0.51,WUHU216DAVISVP2,2013-07-10 22:07:00,
2013-07-10 18:12:00,75.7,74.1,29.78,SSE,159,2.0,10.0,95,0.05,,,0.54,WUHU216DAVISVP2,2013-07-10 22:12:00,
2013-07-10 18:17:00,75.6,74.4,29.78,SSE,158,1.3,9.0,96,0.05,,,0.54,WUHU216DAVISVP2,2013-07-10 22:17:00,
2013-07-10 18:22:00,75.5,74.3,29.78,SSE,150,1.7,9.0,96,0.05,,,0.54,WUHU216DAVISVP2,2013-07-10 22:22:00,
2013-07-10 18:27:00,75.5,74.3,29.78,SSE,155,1.0,7.0,96,0.06,,,0.55,WUHU216DAVISVP2,2013-07-10 22:27:00,
2013-07-10 18:32:00,75.7,74.8,29.78,SSE,155,0.0,6.0,97,0.07,,,0.56,WUHU216DAVISVP2,2013-07-10 22:32:00,
2013-07-10 18:37:00,75.8,74.9,29.78,SSE,155,0.0,6.0,97,0.08,,,0.57,WUHU216DAVISVP2,2013-07-10 22:37:00,
2013-07-10 18:42:00,76.0,75.1,29.78,SSE,155,1.0,3.0,97,0.08,,,0.57,WUHU216DAVISVP2,2013-07-10 22:42:00,
2013-07-10 18:47:00,76.3,75.4,29.78,SSE,155,1.3,2.0,97,0.08,,,0.57,WUHU216DAVISVP2,2013-07-10 22:47:00,
2013-07-10 18:52:00,76.3,75.4,29.78,SSE,155,0.0,2.0,97,0.08,,,0.57,WUHU216DAVISVP2,2013-07-10 22:52:00,
2013-07-10 18:57:00,76.4,75.5,29.78,SSE,155,0.0,2.0,97,0.08,,,0.57,WUHU216DAVISVP2,2013-07-10 22:57:00,
2013-07-10 19:02:00,76.4,75.5,29.78,SSE,155,1.0,2.0,97,0.07,,,0.57,WUHU216DAVISVP2,2013-07-10 23:02:00,
2013-07-10 19:07:00,76.5,75.9,29.78,SSE,155,0.0,1.0,98,0.06,,,0.57,WUHU216DAVISVP2,2013-07-10 23:07:00,
2013-07-10 20:00:00,76.1,75.2,29.78,SSE,160,1.0,5.0,97,0.00,,,0.57,WUHU216DAVISVP2,2013-07-11 00:00:00,
2013-07-10 20:05:00,76.0,75.1,29.79,SSE,160,3.2,5.0,97,0.00,,,0.57,WUHU216DAVISVP2,2013-07-11 00:05:00,
2013-07-10 20:10:00,75.9,75.0,29.79,SSE,166,3.0,6.0,97,0.00,,,0.57,WUHU216DAVISVP2,2013-07-11 00:10:00,
2013-07-10 20:15:00,75.8,75.2,29.79,SSE,165,2.0,6.0,98,0.00,,,0.57,WUHU216DAVISVP2,2013-07-11 00:15:00,
2013-07-10 20:20:00,75.8,75.2,29.79,SSE,165,2.0,6.0,98,0.00,,,0.57,WUHU216DAVISVP2,2013-07-11 00:20:00,
2013-07-10 20:25:00,75.8,75.2,29.80,SSE,165,1.5,6.0,98,0.00,,,0.57,WUHU216DAVISVP2,2013-07-11 00:25:00,
2013-07-10 20:30:00,75.6,74.7,29.79,SSE,164,2.8,7.0,97,0.00,,,0.57,WUHU216DAVISVP2,2013-07-11 00:30:00,
2013-07-10 20:35:00,75.6,74.7,29.79,SSE,165,1.0,7.0,97,0.00,,,0.57,WUHU216DAVISVP2,2013-07-11 00:35:00,
2013-07-10 20:40:00,75.5,74.6,29.79,SSE,165,5.0,7.0,97,0.00,,,0.57,WUHU216DAVISVP2,2013-07-11 00:40:00,
2013-07-10 20:45:00,75.5,74.6,29.79,SSE,167,3.2,7.0,97,0.00,,,0.57,WUHU216DAVISVP2,2013-07-11 00:45:00,
2013-07-10 20:50:00,75.4,74.5,29.79,SSE,166,2.3,5.0,97,0.00,,,0.57,WUHU216DAVISVP2,2013-07-11 00:50:00,
2013-07-10 20:55:00,75.4,74.5,29.78,SSE,165,1.4,5.0,97,0.00,,,0.57,WUHU216DAVISVP2,2013-07-11 00:55:00,
2013-07-10 21:00:00,75.4,74.5,29.79,SSE,165,0.0,5.0,97,0.00,,,0.57,WUHU216DAVISVP2,2013-07-11 01:00:00,
2013-07-10 21:05:00,75.4,74.5,29.79,SSE,165,1.0,3.0,97,0.00,,,0.57,WUHU216DAVISVP2,2013-07-11 01:05:00,
2013-07-10 21:10:00,75.3,74.4,29.79,SSE,165,2.0,5.0,97,0.00,,,0.57,WUHU216DAVISVP2,2013-07-11 01:10:00,
2013-07-10 21:15:00,75.3,74.7,29.78,SSE,165,0.0,5.0,98,0.00,,,0.57,WUHU216DAVISVP2,2013-07-11 01:15:00,
2013-07-10 21:20:00,75.2,74.6,29.79,SSE,165,0.0,5.0,98,0.00,,,0.57,WUHU216DAVISVP2,2013-07-11 01:20:00,
2013-07-10 21:25:00,75.2,74.6,29.79,SSE,165,0.0,5.0,98,0.00,,,0.57,WUHU216DAVISVP2,2013-07-11 01:25:00,
2013-07-10 21:30:00,75.2,74.6,29.79,SSE,165,1.0,4.0,98,0.00,,,0.57,WUHU216DAVISVP2,2013-07-11 01:30:00,
2013-07-10 21:35:00,75.1,74.5,29.79,SSE,165,2.0,4.0,98,0.00,,,0.57,WUHU216DAVISVP2,2013-07-11 01:35:00,
2013-07-10 21:40:00,75.0,74.4,29.79,SSE,167,4.0,6.0,98,0.00,,,0.57,WUHU216DAVISVP2,2013-07-11 01:40:00,
2013-07-10 21:45:00,75.0,74.4,29.79,SSE,167,1.0,6.0,98,0.00,,,0.57,WUHU216DAVISVP2,2013-07-11 01:45:00,
2013-07-10 21:50:00,74.9,74.3,29.79,SSE,167,2.8,6.0,98,0.00,,,0.57,WUHU216DAVISVP2,2013-07-11 01:50:00,
2013-07-10 21:55:00,74.9,74.3,29.79,SSE,167,1.0,6.0,98,0.00,,,0.57,WUHU216DAVISVP2,2013-07-11 01:55:00,
2013-07-10 22:00:00,74.8,74.2,29.79,SSE,167,0.0,3.0,98,0.00,,,0.57,WUHU216DAVISVP2,2013-07-11 02:00:00,
2013-07-10 22:05:00,74.8,74.2,29.79,SSE,167,4.0,4.0,98,0.00,,,0.57,WUHU216DAVISVP2,2013-07-11 02:05:00,
2013-07-10 22:10:00,74.8,74.2,29.79,SSE,167,2.3,5.0,98,0.00,,,0.57,WUHU216DAVISVP2,2013-07-11 02:10:00,
2013-07-10 22:15:00,74.8,74.2,29.79,SSE,167,0.0,6.0,98,0.00,,,0.57,WUHU216DAVISVP2,2013-07-11 02:15:00,
2013-07-10 22:20:00,74.8,74.2,29.79,SSE,167,1.0,6.0,98,0.00,,,0.57,WUHU216DAVISVP2,2013-07-11 02:20:00,
2013-07-10 22:25:00,74.7,74.1,29.78,SSE,167,0.0,6.0,98,0.00,,,0.57,WUHU216DAVISVP2,2013-07-11 02:25:00,
2013-07-10 22:30:00,74.7,74.1,29.79,SSE,167,0.0,6.0,98,0.00,,,0.57,WUHU216DAVISVP2,2013-07-11 02:30:00,
2013-07-10 22:35:00,74.7,74.1,29.79,SSE,167,0.0,3.0,98,0.00,,,0.57,WUHU216DAVISVP2,2013-07-11 02:35:00,
2013-07-10 22:40:00,74.6,74.0,29.79,SSE,167,0.0,2.0,98,0.00,,,0.57,WUHU216DAVISVP2,2013-07-11 02:40:00,
2013-07-10 22:45:00,74.5,73.9,29.79,SSE,167,0.0,2.0,98,0.00,,,0.57,WUHU216DAVISVP2,2013-07-11 02:45:00,
2013-07-10 22:50:00,74.4,73.8,29.79,SSE,167,0.0,1.0,98,0.00,,,0.57,WUHU216DAVISVP2,2013-07-11 02:50:00,
2013-07-10 22:55:00,74.5,73.9,29.79,SSE,167,1.0,1.0,98,0.00,,,0.57,WUHU216DAVISVP2,2013-07-11 02:55:00,
2013-07-10 23:00:00,74.4,73.8,29.79,SSE,167,1.6,4.0,98,0.00,,,0.57,WUHU216DAVISVP2,2013-07-11 03:00:00,
2013-07-10 23:05:00,74.4,73.8,29.79,SSE,167,0.0,4.0,98,0.00,,,0.57,WUHU216DAVISVP2,2013-07-11 03:05:00,
2013-07-10 23:10:00,74.4,73.8,29.79,SSE,167,1.0,4.0,98,0.00,,,0.57,WUHU216DAVISVP2,2013-07-11 03:10:00,
2013-07-10 23:15:00,74.4,73.8,29.79,SSE,167,2.4,4.0,98,0.00,,,0.57,WUHU216DAVISVP2,2013-07-11 03:15:00,
2013-07-10 23:20:00,74.4,73.8,29.79,SSE,167,3.0,4.0,98,0.00,,,0.57,WUHU216DAVISVP2,2013-07-11 03:20:00,
2013-07-10 23:25:00,74.4,73.8,29.79,South,169,2.0,5.0,98,0.00,,,0.57,WUHU216DAVISVP2,2013-07-11 03:25:00,
2013-07-10 23:30:00,74.3,73.7,29.79,South,169,0.0,5.0,98,0.00,,,0.57,WUHU216DAVISVP2,2013-07-11 03:30:00,
2013-07-10 23:35:00,74.2,73.6,29.79,South,169,1.8,5.0,98,0.00,,,0.57,WUHU216DAVISVP2,2013-07-11 03:35:00,
2013-07-10 23:40:00,74.2,73.6,29.78,South,169,0.0,4.0,98,0.00,,,0.57,WUHU216DAVISVP2,2013-07-11 03:40:00,
2013-07-10 23:45:00,74.1,73.5,29.78,South,169,2.5,4.0,98,0.00,,,0.57,WUHU216DAVISVP2,2013-07-11 03:45:00,
2013-07-10 23:50:00,74.1,73.5,29.78,SSE,163,2.1,7.0,98,0.00,,,0.57,WUHU216DAVISVP2,2013-07-11 03:50:00,
2013-07-10 23:55:00,74.1,73.5,29.78,SSE,163,1.0,7.0,98,0.00,,,0.57,WUHU216DAVISVP2,2013-07-11 03:55:00,